sat.trackr.live / text

‹ back to catalog

STARLINK-30291

NORAD 57856 · 2023-141S

PAYLOAD ACTIVE UNKNOWN

§ Identity

Operator
Country
US
Launch date
2023-09-12
Launch site
AFWTR
Launch vehicle
Mass (kg)
RCS (m²)

Purposes: comms

External: N2YO · Heavens-Above · Gunter

§ Orbital elements

Epoch: 2026-09-19T01:04:21.512352Z

Period
94.01 min
Inclination
53.1593°
Eccentricity
0.0001172
Mean motion
15.31704733 rev/d
Perigee alt
469.9 km
Apogee alt
471.5 km
Semi-major
6,848.9 km
B*
2.3427e-5
RAAN
104.4427°
Arg perigee
85.7629°
Mean anomaly
274.3507°
Rev number
16,995

§ Raw data

STARLINK-302911 57856U 23141S   26262.04469343  .00000362  00000+0  23427-4 0  99952 57856  53.1593 104.4427 0001172  85.7629 274.3507 15.31704733169951

JSON: /api/v1/satellites/57856 · /tle

For live sub-satellite position, see the globe view (requires WebGL).

§ Visibility from observer

Set your observer location to see the next 7 days of passes ≥ 10°. The values pass through the URL so the page stays shareable.

No JS? Fill the form by hand. The geolocation button needs JavaScript.